Location: Asheville, NC
(35.6000°N, 82.5500°W)
Time: 01:26:24
(UTC-04:00)

CUBEBUG 2 - Pass Details

Date: 12 January 2018
Orbit: 585 x 700 km, 97.6° (Epoch: 20 July)

Event Time Altitude Azimuth Distance (km) Brightness Sun altitude
Rises 06:25:20 0° 38° (NE) 3,064 ? -14.9°
Reaches altitude 10° 06:29:18 10° 72° (ENE) 2,156 ? -14.2°
Maximum altitude 06:30:49 11° 91° (E) 2,063 ? -13.9°
Drops below altitude 10° 06:32:19 10° 110° (ESE) 2,157 ? -13.6°
Sets 06:36:17 0° 143° (SE) 3,070 ? -12.8°
